Location: Maccacari
(45.1333°N, 11.1333°E)
Time: 02:59:42
(UTC+00:00)

Altair - Pass Details

Date: 27 January 2021
Orbit: 1501 x 1682 km, 47.2° (Epoch: 01 March)

Event Time Altitude Azimuth Distance (km) Brightness Sun altitude
Rises 07:54:24 0° 285° (WNW) 4,923 9.6 10.1°
Reaches altitude 10° 07:57:33 10° 286° (WNW) 3,943 9.1 10.5°
Maximum altitude 08:07:47 89° 199° (SSW) 1,684 8.0 11.9°
Drops below altitude 10° 08:17:54 10° 110° (ESE) 3,901 11.1 13.2°
Sets 08:21:00 0° 111° (ESE) 4,869 11.4 13.6°
